| time (UTC) | temp C | wind direction | speed KPH | gust KPH | rain 1hr cm | rain 24hr cm | rain mn cm | humidity % | barometer mb |
| 20260506101547 | 17 | 68 | 0.0 | 0.0 | 0.00 | 0.00 | 0.00 | 92 | 1019.0 |
| 20260506091550 | 18 | 49 | 0.0 | 0.0 | 0.00 | 0.00 | 0.00 | 91 | 1019.0 |
| 20260506081548 | 18 | 69 | 0.0 | 0.0 | 0.00 | 0.00 | 0.00 | 87 | 1019.0 |
| 20260506071548 | 19 | 84 | 0.0 | 0.0 | 0.00 | 0.00 | 0.00 | 82 | 1019.0 |
| 20260506061547 | 20 | 76 | 0.0 | 3.2 | 0.00 | 0.00 | 0.00 | 81 | 1019.0 |
| 20260506041547 | 20 | 82 | 0.0 | 3.2 | 0.00 | 0.00 | 0.00 | 80 | 1021.0 |
| 20260506031547 | 20 | 162 | 0.0 | 0.0 | 0.00 | 0.00 | 0.00 | 79 | 1021.0 |
| 20260506021547 | 20 | 318 | 0.0 | 3.2 | 0.00 | 0.00 | 0.00 | 77 | 1021.0 |
| 20260506011547 | 20 | 75 | 3.2 | 4.8 | 0.00 | 0.00 | 0.00 | 77 | 1021.0 |
| 20260506001547 | 20 | 129 | 1.6 | 1.6 | 0.00 | 0.00 | 0.00 | 79 | 1020.0 |
| 20260505231548 | 21 | 292 | 3.2 | 3.2 | 0.00 | 0.00 | 0.00 | 72 | 1020.0 |
| 20260505221550 | 22 | 151 | 4.8 | 4.8 | 0.00 | 0.00 | 0.00 | 68 | 1020.0 |
| 20260505211548 | 22 | 176 | 4.8 | 4.8 | 0.00 | 0.00 | 0.00 | 66 | 1020.0 |
| 20260505201547 | 23 | 166 | 4.8 | 6.4 | 0.00 | 0.00 | 0.00 | 64 | 1021.0 |
| 20260505191547 | 24 | 238 | 6.4 | 8.0 | 0.00 | 0.00 | 0.00 | 59 | 1021.0 |
| 20260505181547 | 25 | 240 | 4.8 | 6.4 | 0.00 | 0.00 | 0.00 | 58 | 1022.0 |
| 20260505171548 | 24 | 342 | 3.2 | 4.8 | 0.00 | 0.00 | 0.00 | 61 | 1022.0 |
| 20260505161548 | 23 | 139 | 3.2 | 6.4 | 0.00 | 0.00 | 0.00 | 59 | 1022.0 |
| 20260505151548 | 25 | 235 | 3.2 | 9.7 | 0.00 | 0.00 | 0.00 | 50 | 1022.0 |
| 20260505121548 | 22 | 82 | 0.0 | 0.0 | 0.00 | 0.00 | 0.00 | 66 | 1022.0 |
| 20260505111551 | 16 | 65 | 0.0 | 0.0 | 0.00 | 0.00 | 0.00 | 92 | 1021.0 |